This is the latest recevied weather packets stored in our database for station/object KI4NG. If no packets are shown the sender has not sent any weather packets the latest 10 day(s).
| Time | Temp. | Humidity | Pressure | Rain* | Wind** | Luminosity | Snow |
|---|---|---|---|---|---|---|---|
| 1788314908 | 25° C | 88% | 1021.1 hPa | 0 mm | - | 0 W/m² | - |
| 1788314605 | 25° C | 87% | 1021.1 hPa | 0 mm | - | 0 W/m² | - |
| 1788314300 | 25.56° C | 86% | 1021.4 hPa | 0 mm | - | 0 W/m² | - |
| 1788313996 | 25.56° C | 84% | 1021.1 hPa | 0 mm | - | 0 W/m² | - |
| 1788313691 | 26.11° C | 83% | 1021.2 hPa | 0 mm | - | 0 W/m² | - |
| 1788313388 | 25.56° C | 84% | 1021.2 hPa | 0 mm | - | 0 W/m² | - |
| 1788313086 | 25.56° C | 84% | 1021 hPa | 0 mm | - | 0 W/m² | - |
| 1788312782 | 25.56° C | 84% | 1021 hPa | 0 mm | - | 0 W/m² | - |
| 1788312477 | 26.11° C | 83% | 1021.1 hPa | 0 mm | - | 0 W/m² | - |
| 1788312173 | 26.11° C | 83% | 1021.1 hPa | 0 mm | - | 0 W/m² | - |
| 1788311869 | 26.11° C | 83% | 1021.1 hPa | 0 mm | - | 0 W/m² | - |
| 1788311569 | 26.11° C | 83% | 1020.9 hPa | 0 mm | - | 0 W/m² | - |
| 1788311267 | 26.11° C | 81% | 1021 hPa | 0 mm | - | 0 W/m² | - |
| 1788310963 | 26.11° C | 83% | 1020.9 hPa | 0 mm | - | 0 W/m² | - |
| 1788310662 | 26.67° C | 81% | 1020.7 hPa | 0 mm | - | 0 W/m² | - |
| 1788310357 | 26.67° C | 82% | 1020.6 hPa | 0 mm | - | 0 W/m² | - |
| 1788310057 | 26.67° C | 82% | 1020.8 hPa | 0 mm | - | 0 W/m² | - |
| 1788309752 | 26.67° C | 80% | 1020.6 hPa | 0 mm | - | 0 W/m² | - |
| 1788309447 | 26.67° C | 77% | 1020.6 hPa | 0 mm | - | 0 W/m² | - |
| 1788309143 | 26.67° C | 76% | 1020.8 hPa | 0 mm | - | 0 W/m² | - |
| 1788308839 | 26.67° C | 75% | 1020.7 hPa | 0 mm | - | 0 W/m² | - |
| 1788308538 | 27.22° C | 74% | 1020.6 hPa | 0 mm | - | 0 W/m² | - |
| 1788308234 | 26.67° C | 73% | 1020.7 hPa | 0 mm | - | 0 W/m² | - |
| 1788307934 | 26.67° C | 74% | 1020.6 hPa | 0 mm | - | 0 W/m² | - |
| 1788307629 | 27.22° C | 73% | 1020.4 hPa | 0 mm | - | 2 W/m² | - |
* Rain latest hour (hover to see other rain measurements)
** Current wind speed in m/s (hover to see current wind gust speed)